GSE Systems Net Profit Margin 2010-2024 | GVP

GSE Systems net profit margin from 2010 to 2024. Net profit margin can be defined as net Income as a portion of total sales revenue.
GSE Systems Net Profit Margin Historical Data
Date TTM Revenue TTM Net Income Net Margin
2024-03-31 $0.05B $-0.01B -15.56%
2023-12-31 $0.05B $-0.01B -17.78%
2023-09-30 $0.05B $-0.01B -17.39%
2023-06-30 $0.05B $-0.02B -32.61%
2023-03-31 $0.05B $-0.02B -31.91%
2022-12-31 $0.05B $-0.02B -31.25%
2022-09-30 $0.05B $-0.02B -29.41%
2022-06-30 $0.05B $0.01B 9.26%
2022-03-31 $0.06B $0.01B 16.36%
2021-12-31 $0.06B $0.01B 17.86%
2021-09-30 $0.06B $0.01B 20.00%
2021-06-30 $0.05B $-0.00B -1.89%
2021-03-31 $0.05B $-0.01B -11.32%
2020-12-31 $0.06B $-0.01B -17.24%
2020-09-30 $0.06B $-0.02B -24.19%
2020-06-30 $0.07B $-0.02B -21.74%
2020-03-31 $0.08B $-0.01B -16.67%
2019-12-31 $0.08B $-0.01B -13.41%
2019-09-30 $0.09B $-0.00B -4.55%
2019-06-30 $0.09B $-0.00B -4.44%
2019-03-31 $0.09B $-0.00B -3.26%
2018-12-31 $0.09B 0 0.00%
2018-09-30 $0.09B $0.01B 6.52%
2018-06-30 $0.09B $0.01B 7.06%
2018-03-31 $0.08B $0.01B 7.79%
2017-12-31 $0.07B $0.01B 10.00%
2017-09-30 $0.06B $0.00B 1.64%
2017-06-30 $0.06B $0.00B 3.33%
2017-03-31 $0.06B $0.00B 1.82%
2016-12-31 $0.05B $0.00B 1.92%
2016-09-30 $0.05B $0.00B 1.89%
2016-06-30 $0.05B $-0.00B -5.56%
2016-03-31 $0.06B $-0.00B -7.14%
2015-12-31 $0.06B $-0.00B -7.02%
2015-09-30 $0.06B $-0.01B -10.71%
2015-06-30 $0.05B $-0.00B -8.16%
2015-03-31 $0.04B $-0.01B -11.63%
2014-12-31 $0.04B $-0.01B -18.42%
2014-09-30 $0.04B $-0.01B -16.22%
2014-06-30 $0.04B $-0.01B -12.20%
2014-03-31 $0.04B $-0.01B -25.00%
2013-12-31 $0.05B $-0.01B -21.28%
2013-09-30 $0.05B $-0.01B -20.83%
2013-06-30 $0.05B $-0.01B -16.33%
2013-03-31 $0.05B 0 0.00%
2012-12-31 $0.05B $0.00B 3.85%
2012-09-30 $0.05B $0.00B 5.56%
2012-06-30 $0.05B $0.00B 5.56%
2012-03-31 $0.05B $0.00B 5.77%
2011-12-31 $0.05B $0.00B 5.88%
2011-09-30 $0.05B $-0.00B -2.08%
2011-06-30 $0.05B $-0.00B -6.38%
2011-03-31 $0.05B $-0.00B -6.25%
2010-12-31 $0.05B $-0.00B -8.51%
2010-09-30 $0.05B $-0.00B -6.52%
2010-06-30 $0.04B $-0.00B -4.55%
2010-03-31 $0.04B $-0.00B -2.33%
2009-12-31 $0.04B $-0.00B -2.50%
Sector Industry Market Cap Revenue
Computer and Technology Computer Software $0.011B $0.045B
GSE Systems, Inc. develops and delivers business and technology solutions by applying process control and simulation software, systems and services to the pharmaceutical and chemical research & development, energy, process and manufacturing industries worldwide. The company's products are used in the following industries: specialty chemical, food and beverage, petroleum refining, pharmaceutical, fossil and nuclear power generation, metals and water treatment. (PRESS RELEASE)
Stock Name Country Market Cap PE Ratio
Microsoft (MSFT) United States $3161.257B 36.83
Oracle (ORCL) United States $342.243B 27.86
Salesforce (CRM) United States $277.884B 46.45
Adobe (ADBE) United States $217.141B 36.31
Intuit (INTU) United States $187.642B 62.92
Synopsys (SNPS) United States $87.593B 63.19
Cadence Design Systems (CDNS) United States $79.591B 75.77
Dassault Systemes SA (DASTY) France $55.184B 35.85
Autodesk (ADSK) United States $47.706B 46.61
MicroStrategy (MSTR) United States $30.637B 0.00
ANSYS (ANSS) United States $28.686B 53.08
PTC (PTC) United States $22.025B 58.41
SS&C Technologies Holdings (SSNC) United States $15.695B 14.86
Manhattan Associates (MANH) United States $14.200B 75.37
Open Text (OTEX) Canada $8.494B 8.55
Descartes Systems Group (DSGX) Canada $8.478B 74.21
Trend Micro (TMICY) Japan $6.723B 48.69
Pegasystems (PEGA) United States $5.453B 48.22
CommVault Systems (CVLT) United States $4.798B 78.41
Blackbaud (BLKB) United States $4.109B 35.38
ACI Worldwide (ACIW) United States $3.962B 18.83
Progress Software (PRGS) United States $2.232B 14.19
Verint Systems (VRNT) United States $2.014B 18.77
Sapiens (SPNS) Israel $1.910B 26.04
BlackBerry (BB) Canada $1.776B 0.00
PROS Holdings (PRO) United States $1.524B 0.00
Simulations Plus (SLP) United States $1.000B 73.59
Rand Worldwide (RWWI) United States $0.652B 0.00
Magic Software Enterprises (MGIC) Israel $0.563B 11.94
American Software (AMSWA) United States $0.349B 29.22
Canaan (CAN) China $0.285B 0.00
OptimizeRx (OPRX) United States $0.239B 0.00
Rigetti Computing (RGTI) United States $0.180B 0.00
Icad Inc (ICAD) United States $0.044B 0.00
Neonode (NEON) Sweden $0.036B 0.00
NetSol Technologies (NTWK) United States $0.031B 0.00
Smith Micro Software (SMSI) United States $0.027B 0.00
Wetouch Technology (WETH) $0.024B 0.00
Hanryu Holdings (HRYU) South Korea $0.023B 0.00
SAP SE (SAP) Germany $0.000B 49.95